User: anonymous   Login
Location: Emory University Observatory
(33.7903°N, 84.3267°W)
Time: 00:03:37
(UTC-04:00)
Language:

EO-79 - Orbit

View from above orbital plane
View from above orbital plane
View from above satellite
View from above satellite

Ground track
Ground track

The orbit data is extracted from the following two-line orbital elements,

1 40025U 14033R   18141.73256204  .00000225  00000-0  30123-4 0  9998
2 40025  97.9063  57.1836 0011003 273.2339  86.7619 14.88704739212857
Epoch (UTC): 21 May 2018 17:34:53
Eccentricity: 0.0011003
inclination: 97.9063°
perigee height: 594 km
apogee height: 609 km
right ascension of ascending node: 57.1836°
argument of perigee: 273.2339°
revolutions per day: 14.88704739
mean anomaly at epoch: 86.7619°
orbit number at epoch: 21285

The dashed part of the orbit path shows where the satellite is in the earth's shadow,  

DLR